Home   Weather   Ulaanbaatar   Past weeks

Flag for Mongolia Past Weather in Ulaanbaatar, Mongolia — Yesterday and Last 2 Weeks

Now
-20 °F

Clear.


Feels Like: -20 °F
Forecast: -18 / 13 °F
Wind: 1 mph from North

Location: Ulan-Bator

Current Time: Dec 5, 2016 at 4:24:06 am

Latest Report: Dec 5, 2016 at 4:00 am


Visibility: 10 mi

Pressure: 30.30 "Hg (25.27 "Hg at 1298m altitude)

Humidity: 68%

Dew Point: -27 °F

Location of UlaanbaatarLocation

Past Weather in Ulaanbaatar — Graph

°F

Ulaanbaatar Temperature Yesterday

Maximum temperature yesterday: 7 °F (at 3:00 am)
Minimum temperature yesterday: -20 °F (at 9:30 pm)
Average temperature yesterday: -3 °F

High & Low Weather Summary for the Past Weeks

 TemperatureHumidityPressure
High21 °F (Dec 3, 3:00 pm)92% (Nov 30, 6:30 am)30.60 "Hg (Nov 30, 6:30 am)
Low-42 °F (Nov 20, 7:00 am)53% (Dec 1, 2:30 pm)29.77 "Hg (Nov 25, 6:30 am)
Average-8 °F74%30.15 "Hg
* Reported Nov 20 3:00 am — Dec 5 3:00 am, Ulaanbaatar, Weather by CustomWeather, © 2016

Note: Actual official high and low records may vary slightly from our data, if they occured in-between our weather recording intervals... More about our weather records

Advertising

Ulaanbaatar Weather History for the Previous 24 Hours

Scroll right to see more
 ConditionsComfort  
Time TempWeatherWind HumidityBarometerVisibility
3:00 am
Mon, Dec 5
-18 °FClear.1 mph69%30.30 "Hg10 mi
2:00 am-17 °FClear.No wind76%30.30 "Hg10 mi
1:00 am-18 °FClear.No wind75%30.30 "Hg10 mi
12:00 am-20 °FClear.6 mph68%30.30 "Hg10 mi
11:00 pm
Sun, Dec 4
-17 °FClear.3 mph69%30.30 "Hg10 mi
10:30 pm-17 °FClear.8 mph69%30.30 "Hg10 mi
10:00 pm-18 °FClear.8 mph69%30.33 "Hg10 mi
9:30 pm-20 °FClear.8 mph68%30.33 "Hg10 mi
9:00 pm-15 °FClear.8 mph69%30.33 "Hg10 mi
8:30 pm-18 °FClear.6 mph75%30.33 "Hg10 mi
8:00 pm-18 °FClear.6 mph69%30.30 "Hg10 mi
7:30 pm-15 °FClear.3 mph76%30.30 "Hg10 mi
7:00 pm-15 °FClear.3 mph76%30.30 "Hg10 mi
6:30 pm-15 °FClear.3 mph69%30.27 "Hg10 mi
6:00 pm-13 °FSunny.3 mph69%30.27 "Hg10 mi
5:30 pm-8 °FSunny.1 mph64%30.27 "Hg10 mi
5:00 pm-2 °FSunny.3 mph65%30.24 "Hg10 mi
4:30 pm3 °FPartly sunny.8 mph55%30.24 "HgN/A
4:00 pm5 °FPartly sunny.10 mph55%30.24 "HgN/A
3:30 pm7 °FPartly sunny.10 mph56%30.21 "HgN/A
3:00 pm7 °FPartly sunny.10 mph56%30.21 "HgN/A
2:30 pm7 °FSunny.10 mph56%30.21 "Hg10 mi
2:00 pm7 °FSunny.6 mph56%30.21 "Hg10 mi
1:30 pm7 °FSunny.3 mph61%30.18 "Hg10 mi
1:00 pm7 °FSunny.1 mph61%30.18 "Hg10 mi
12:30 pm5 °FSunny.1 mph66%30.18 "Hg10 mi
12:00 pm1 °FSunny.6 mph71%30.18 "Hg10 mi
11:30 am1 °FSunny.3 mph65%30.18 "Hg10 mi
10:30 am-6 °FPartly sunny.3 mph77%30.18 "HgN/A
10:00 am-6 °FPartly sunny.1 mph70%30.18 "HgN/A
9:30 am-6 °FScattered clouds.3 mph77%30.18 "HgN/A
9:00 am-2 °FPassing clouds.1 mph77%30.18 "HgN/A
8:30 am-2 °FPassing clouds.3 mph77%30.15 "HgN/A
8:00 am-2 °FPassing clouds.3 mph84%30.15 "HgN/A
7:30 am-2 °FPassing clouds.1 mph77%30.15 "HgN/A
7:00 am1 °FPassing clouds.No wind78%30.15 "HgN/A
6:30 am3 °FPassing clouds.1 mph78%30.12 "HgN/A
6:00 am1 °FPassing clouds.3 mph78%30.12 "HgN/A
5:30 am1 °FPassing clouds.3 mph78%30.12 "HgN/A
5:00 am3 °FPassing clouds.1 mph78%30.15 "HgN/A
4:00 am5 °FPassing clouds.1 mph78%30.15 "HgN/A
Weather by CustomWeather, © 2016

See weather overviewHow to use our weather pages